Theta_e
329 328 326 324 322 323 325 322 322 321 321 322 322 320 318 319 316 312 309 311 310 310 312 314 313 312 312 312 312 312 312 312
329 328 326 322 321 322 323 322 321 321 321 322 322 321 318 318 315 314 310 312 312 315 317 316 315 315 315 313 313 314 313 312
329 327 325 322 321 322 322 320 320 321 323 323 322 320 320 317 314 311 310 311 309 313 316 316 317 318 318 315 316 317 318 314
330 326 324 323 321 321 321 321 320 320 322 322 321 321 321 317 314 311 309 310 312 314 316 316 316 316 318 316 316 317 319 316
330 328 325 324 322 320 320 321 320 320 321 322 321 322 321 320 315 315 315 315 315 316 316 315 314 318 319 320 319 318 320 320
330 328 325 323 322 319 321 322 321 320 320 321 321 321 321 320 318 316 314 314 315 316 315 315 317 320 320 321 321 320 321 321
329 327 325 324 323 321 321 321 321 322 320 320 321 320 320 320 319 318 317 314 314 315 315 315 315 317 320 322 323 323 323 322
329 329 327 325 323 322 320 321 321 321 322 320 321 320 319 319 319 318 317 316 315 315 314 315 315 315 318 321 319 320 322 322
329 329 327 325 323 321 319 321 322 322 321 322 321 321 320 320 321 321 318 317 317 316 315 315 315 317 319 319 319 320 323 322
328 328 327 326 324 322 320 320 322 322 322 322 322 322 321 321 321 320 319 317 317 317 317 318 319 320 320 321 321 321 322 322
328 328 327 326 325 323 320 320 321 322 322 322 322 321 321 321 320 320 320 319 319 318 319 320 320 320 320 320 320 320 320 322
327 328 327 327 326 324 322 321 321 322 322 322 321 321 321 321 321 320 319 319 319 318 319 319 319 319 318 319 320 321 321 322
328 328 327 326 326 325 324 323 321 321 322 322 321 320 320 321 321 320 320 320 320 319 319 319 319 319 319 319 320 321 321 321
327 329 329 328 326 326 325 324 323 322 321 322 322 321 320 320 320 320 320 320 319 319 320 320 319 319 319 319 320 319 319 317
323 328 329 328 327 326 325 325 324 323 322 321 322 321 321 320 320 319 319 318 318 318 319 319 319 319 319 320 320 321 321 319
321 323 328 329 328 327 326 325 324 324 323 322 322 321 321 321 320 320 319 319 319 319 319 319 320 320 320 320 320 319 318 318
321 321 322 326 328 328 327 326 325 324 324 324 323 322 321 321 320 320 320 320 320 320 320 320 320 320 319 317 317 318 319 317
321 321 320 321 323 326 327 326 325 325 324 324 324 323 323 322 321 320 320 320 320 320 320 320 320 321 319 317 318 318 317 316
320 321 321 320 320 323 325 326 325 325 325 324 324 323 323 322 322 321 321 320 320 320 320 320 320 321 319 318 317 317 314 312
Wind_Speed
15 14 11 8 9 10 11 12 14 17 17 18 25 32 33 33 31 30 32 28 30 27 25 23 21 21 18 15 14 11 13 13
15 15 13 10 11 12 11 15 18 21 23 20 24 28 32 30 26 29 34 31 34 27 25 24 21 18 18 15 12 11 10 11
14 17 16 14 14 13 13 16 22 20 20 21 17 32 30 29 30 33 35 34 40 32 26 24 21 17 12 14 14 13 10 12
16 17 20 17 17 18 16 16 19 18 19 20 19 25 26 26 30 35 35 35 35 30 27 24 19 14 18 23 21 17 13 14
16 17 21 21 20 18 18 18 19 19 24 20 23 20 24 26 30 33 36 34 33 33 29 26 24 20 20 20 20 20 16 15
19 19 23 22 20 20 20 21 20 21 23 22 25 22 25 27 30 29 33 35 36 32 27 26 23 21 19 18 19 21 20 17
18 21 22 23 22 22 23 24 24 23 26 25 26 25 26 26 29 31 26 33 34 33 30 30 26 25 20 20 21 20 20 20
19 21 21 26 27 26 26 26 27 25 27 27 28 27 32 33 34 33 33 31 31 37 41 36 35 32 29 23 22 24 22 23
19 20 22 26 29 29 28 30 30 30 29 30 29 28 28 30 34 37 37 34 36 40 42 42 42 32 30 28 27 24 19 18
18 21 25 26 28 32 32 31 30 31 32 31 32 33 33 32 32 35 36 37 36 37 39 39 36 33 32 26 24 22 21 22
15 18 23 26 27 28 30 31 31 31 32 33 33 34 36 35 34 36 35 36 37 37 36 37 36 31 30 29 28 26 26 25
12 15 22 25 25 28 29 31 33 33 34 34 34 36 37 36 35 36 37 35 37 37 37 35 34 33 33 32 31 29 28 24
10 14 18 24 27 28 31 32 33 34 35 36 36 35 36 38 39 39 37 38 37 38 37 37 37 37 35 34 33 30 30 24
7 12 15 19 26 29 32 33 34 33 33 34 34 34 36 38 39 38 37 37 38 38 38 39 39 38 37 35 34 36 32 30
6 10 14 18 24 28 30 32 33 33 33 34 34 36 38 38 37 36 36 36 36 37 37 37 36 36 34 32 30 28 25 25
10 10 12 15 21 25 27 30 32 34 35 35 36 35 34 33 33 34 35 34 35 36 35 36 35 34 34 33 30 27 24 25
13 13 12 14 20 24 26 28 31 33 34 37 34 33 33 35 34 33 33 34 35 34 35 34 33 32 34 40 36 28 29 31
13 12 12 13 20 24 27 29 27 31 33 31 31 32 33 33 31 31 31 32 30 32 31 32 32 31 31 37 39 27 27 33
15 11 8 15 17 19 23 24 28 29 30 29 29 30 29 28 29 30 30 29 29 28 29 30 29 27 31 34 33 32 34 30
Wind_Direction
201 207 208 209 205 202 198 188 203 197 177 173 153 155 153 158 156 168 168 168 162 163 168 171 170 171 159 160 154 169 184 176
193 198 197 196 198 196 185 199 192 181 178 160 147 147 160 168 163 168 172 176 163 168 168 169 171 160 161 154 156 186 183 179
185 191 195 197 197 195 183 186 186 184 183 175 152 158 168 169 174 172 174 173 179 175 170 166 171 168 163 186 180 186 194 186
190 188 192 194 196 194 187 186 190 189 186 167 151 158 165 165 171 174 177 176 175 179 176 173 168 171 192 199 198 198 200 203
193 193 189 195 194 193 188 187 186 185 179 168 174 164 167 176 176 176 176 180 184 182 184 181 164 205 204 204 207 208 212 206
195 196 190 190 188 192 192 188 188 184 182 185 180 180 176 184 187 186 185 190 190 194 189 201 195 209 211 211 212 215 219 224
196 193 189 187 187 186 191 190 189 189 185 185 183 181 177 178 187 197 194 194 194 196 200 210 217 223 224 221 216 214 217 229
193 190 191 184 187 187 191 191 189 191 191 187 186 185 185 186 185 189 193 194 196 199 208 218 221 225 231 228 235 237 224 227
197 196 194 191 186 189 189 193 190 191 192 194 191 187 187 189 193 196 194 195 200 205 212 217 221 229 234 238 238 239 236 236
197 195 198 194 191 192 191 192 194 194 194 195 198 198 195 197 197 196 197 199 202 206 212 214 219 221 228 233 234 235 236 239
199 197 197 198 196 194 195 196 195 196 197 198 199 199 200 202 198 198 200 201 205 205 208 213 215 220 227 232 237 241 242 243
192 195 197 198 197 198 200 199 197 198 200 200 200 201 200 201 202 201 204 204 206 208 212 216 220 224 228 232 237 241 241 238
186 186 189 196 200 201 201 202 203 203 200 201 203 203 204 207 209 209 208 210 212 215 219 223 226 230 234 236 238 232 228 230
189 189 192 198 201 203 205 206 207 203 204 206 206 205 206 210 214 217 217 220 222 223 225 227 229 233 236 238 232 229 239 249
225 208 204 201 203 205 207 208 208 207 207 208 210 210 210 211 214 215 218 220 222 225 226 228 230 231 230 227 232 237 240 244
256 224 214 208 205 207 209 209 207 207 209 211 213 214 217 219 219 217 216 218 222 223 223 224 226 226 226 222 219 232 236 238
276 251 228 216 211 210 208 209 206 203 209 214 216 214 214 217 218 220 221 220 222 224 225 224 223 227 230 234 235 226 234 237
275 257 246 235 224 215 211 209 204 207 208 212 213 213 215 217 217 218 221 223 223 224 227 226 230 233 238 241 247 227 231 234
297 292 278 261 246 221 223 209 204 207 212 210 210 211 213 214 214 217 217 220 221 225 229 232 235 234 236 251 244 237 230 229